Home > Weather > Minas > Past weeks

Flag for Uruguay Weather for the Past 2 Weeks in Minas, Uruguay

Now
79 °F

Broken clouds.


Feels Like: 81 °F
Forecast: N/A
Wind: 16 mph from Southwest

Location: Capitan Corbeta

Current Time: Feb 13, 2016 at 7:12:29 PM

Latest Report: Feb 13, 2016 at 6:00 PM


Visibility: N/A

Pressure: 29.68 "Hg

Humidity: 70%

Dew point: 68 °F

Location of MinasLocation

Historic Weather in Minas — Graph

°F

Minas Temperature Yesterday

Maximum temperature yesterday: 99 °F (at 1:00 PM)
Minimum temperature yesterday: 72 °F (at 1:00 AM)
Average temperature yesterday: 83 °F

High & Low Weather Summary for the Past Weeks

 TemperatureHumidityPressure
High99 °F (Feb 12, 1:00 PM)94% (Jan 30, 6:00 AM)30.12 "Hg (Jan 30, 6:00 AM)
Low57 °F (Feb 11, 6:00 AM)25% (Feb 12, 1:00 PM)29.65 "Hg (Feb 13, 2:00 AM)
Average74 °F69%29.94 "Hg
* Reported Jan 29 5:00 PM — Feb 13 5:00 PM, Minas, Weather by CustomWeather, © 2016

Note: Actual official high and low records may vary slightly from our data, if they occured in-between our weather recording intervals... More about our weather records

Advertising

Minas Weather History for the Previous 24 Hours

 ConditionsComfort  
Time TempWeatherWind HumidityBarometerVisibility
5:00 PM
Sat, Feb 13
82 °FBroken clouds.14 mph62%29.68 "HgN/A
4:00 PM77 °FMore clouds than sun.12 mph79%29.68 "HgN/A
3:00 PM81 °FMore clouds than sun.8 mph70%29.68 "HgN/A
1:00 PM81 °FMore clouds than sun.8 mph66%29.68 "HgN/A
12:00 PM77 °FMore clouds than sun.8 mph89%29.68 "HgN/A
11:00 AM73 °FMostly cloudy.9 mph89%29.71 "HgN/A
10:00 AM72 °FLight rain. Overcast.10 mph88%29.68 "HgN/A
9:00 AM72 °FMild.N/A88%29.71 "HgN/A
8:00 AM73 °FMild.N/A89%29.71 "HgN/A
7:00 AM72 °FRain. Overcast.33 mph88%29.74 "Hg3 mi
6:00 AM73 °FThunderstorms. Partly cloudy.No wind89%29.74 "HgN/A
5:00 AM73 °FThunderstorms. Passing clouds.13 mph78%29.74 "HgN/A
4:00 AM77 °FThundershowers. Passing clouds.6 mph79%29.65 "HgN/A
3:00 AM77 °FThundershowers. Passing clouds.7 mph79%29.65 "HgN/A
2:00 AM77 °FClear.9 mph74%29.65 "Hg10 mi
1:00 AM77 °FClear.7 mph69%29.68 "Hg10 mi
12:00 AM79 °FClear.12 mph65%29.68 "Hg10 mi
11:00 PM
Fri, Feb 12
81 °FClear.12 mph58%29.71 "Hg10 mi
9:00 PM84 °FClear.12 mph45%29.68 "Hg10 mi
8:00 PM86 °FClear.8 mph52%29.68 "Hg10 mi
7:00 PM91 °FSunny.9 mph34%29.68 "Hg10 mi
Weather by CustomWeather, © 2016

See weather overviewHow to use our weather pages